Regional Weather Roundup
Issued by NWS

Home | Current Version | Previous Version | Text Only | Print | Product List | Glossary Off
Versions: 1 2 3 4 5 6 7 8 9 10 11 12 13 14 15 16 17 18 19 20 21 22 23 24 25 26 27 28 29 30 31 32 33 34 35 36 37 38 39 40 41 42 43 44 45 46 47 48 49 50

000
ASUS43 KLMK 232310
RWRKY
KENTUCKY REGIONAL WEATHER ROUNDUP
NATIONAL WEATHER SERVICE LOUISVILLE KY
700 PM EDT SUN JUL 23 2017

NOTE "FAIR" INDICATES FEW OR NO CLOUDS BELOW 12,000 FEET
WITH NO SIGNIFICANT WEATHER AND/OR OBSTRUCTIONS TO VISIBILITY.

KYZ001>023-026-027-061>063-070>075-240000-
WESTERN AND SOUTH CENTRAL KENTUCKY

CITY           SKY/WX    TMP DP  RH WIND       PRES   REMARKS
PADUCAH        FAIR      91  72  53 N8        29.82F HX  98
HENDERSON      FAIR      86  73  65 W6        29.84F HX  93
OWENSBORO      FAIR      87  71  58 W6        29.84F HX  93
HOPKINSVILLE   FAIR      89  75  63 NW7       29.82F HX  98
BOWLING GREEN  FAIR      91  74  57 NW7       29.82F HX 100
GLASGOW        FAIR      90  71  53 N5        29.83F HX  95
$$

KYZ024-025-028>034-038-045-046-053-240000-
NORTH CENTRAL KENTUCKY

CITY           SKY/WX    TMP DP  RH WIND       PRES   REMARKS
LOUISVILLE/SDF FAIR      87  68  52 W12       29.82F HX  90
LOUISVILLE/LOU FAIR      85  70  60 W8        29.83F
FORT KNOX      FAIR      84  71  64 W7        29.83F
$$

KYZ035>037-039>044-047>052-055>060-089>105-240000-
NORTHEAST KENTUCKY

CITY           SKY/WX    TMP DP  RH WIND       PRES   REMARKS
LEXINGTON      FAIR      85  69  58 W10       29.84F
COVINGTON      LGT RAIN  82  75  79 W10       29.80F
FRANKFORT      FAIR      85  68  56 W9        29.83F
$$

KYZ054-064>069-076>088-106>120-240000-
SOUTHEAST KENTUCKY

CITY           SKY/WX    TMP DP  RH WIND       PRES   REMARKS
JACKSON        FAIR      85  71  63 CALM      29.86S HX  90
LONDON         FAIR      87  70  56 W10       29.84F HX  92
SOMERSET       PTSUNNY   86  70  58 NW9       29.85S HX  90
MIDDLESBORO    FAIR      87  73  63 SW5       29.85S HX  95
MONTICELLO     MOCLDY    86  77  74 NW9G18    29.85F HX  97
$$




USA.gov is the U.S. government's official web portal to all federal, state and local government web resources and services.